Weather History for Logan, UT

Change the Weather History Date:

Wednesday, January 23, 2013

  Actual Average Record
Temperature  
Mean Temperature 0 °F -  
Max Temperature 10 °F 29 °F 52 °F (1970)
Min Temperature -9 °F 11 °F -20 °F (1962)
Degree Days  
Heating Degree Days 64    
Moisture  
Dew Point -7 °F    
Average Humidity 82    
Maximum Humidity 87    
Minimum Humidity 76    
Precipitation  
Precipitation 0.00 in - - ()
Sea Level Pressure  
Sea Level Pressure 30.50 in    
Wind  
Wind Speed 3 mph (WNW)    
Max Wind Speed 8 mph    
Max Gust Speed -    
Visibility 2 miles    
Events      
Averages and records for this station are not official NWS values.
T = Trace of Precipitation, MM = Missing Value Source: NWS Daily Summary

Daily Weather History Graph

Daily Weather History Graph

Search for Another Location

Airport:

Trip Planner

Search our weather history database for the weather conditions in past years. The results will help you decide how hot, cold, wet, or windy it might be!

Date:

Astronomy

Jan. 23, 2013 Rise Set
Actual Time 7:47 AM MST 5:31 PM MST
Civil Twilight 7:17 AM MST 6:01 PM MST
Nautical Twilight 6:43 AM MST 6:35 PM MST
Astronomical Twilight 6:10 AM MST 7:08 PM MST
Moon 2:44 PM MST (1/23) 5:02 AM MST (1/23)
Length of Visible Light 10h 44m
Length of Day
9h 44m
Waxing Gibbous, 89% of the Moon is Illuminated
Jan 23
Waxing Gibbous
Jan 26
Full
Feb 3
Last Quarter
Feb 10
New
Feb 17
First Quarter

Hourly Weather History & Observations

Time (MST) Temp. Windchill Dew Point Humidity Pressure Visibility Wind Dir Wind Speed Gust Speed Precip Events Conditions
12:44 AM -7.6 °F -16.5 °F -11.2 °F 84% 30.37 in - NNW 3.5 mph - N/A   Overcast
12:51 AM -9.0 °F -18.2 °F -14.1 °F 79% 30.66 in - North 3.5 mph - N/A   Overcast
1:11 AM -7.6 °F -18.8 °F -11.2 °F 84% 30.37 in - NW 4.6 mph - N/A   Mostly Cloudy
1:27 AM -5.8 °F -14.5 °F -9.4 °F 84% 30.37 in - NE 3.5 mph - N/A   Scattered Clouds
1:51 AM -5.1 °F -17.6 °F -9.0 °F 83% 30.64 in - WSW 5.8 mph - N/A   Clear
2:05 AM -5.8 °F -19.9 °F -9.4 °F 84% 30.36 in - SW 6.9 mph - N/A   Scattered Clouds
2:11 AM -7.6 °F -20.6 °F -11.2 °F 84% 30.36 in - SW 5.8 mph - N/A   Mostly Cloudy
2:24 AM -9.4 °F -24.3 °F -14.8 °F 77% 30.36 in - WSW 6.9 mph - N/A   Overcast
2:51 AM -8.0 °F - -13.0 °F 79% 30.64 in - Calm Calm - N/A   Overcast
3:31 AM -7.6 °F -16.5 °F -11.2 °F 84% 30.36 in - ENE 3.5 mph - N/A   Overcast
3:51 AM -6.0 °F - -11.0 °F 79% 30.63 in - Calm Calm - N/A   Mostly Cloudy
4:46 AM -7.6 °F -20.6 °F -11.2 °F 84% 30.36 in - West 5.8 mph - N/A   Overcast
4:51 AM -9.0 °F - -14.1 °F 79% 30.64 in - Calm Calm - N/A   Overcast
5:18 AM -9.4 °F -18.6 °F -14.8 °F 77% 30.35 in - West 3.5 mph - N/A   Scattered Clouds
5:51 AM -9.9 °F -21.5 °F -15.0 °F 78% 30.65 in - NNE 4.6 mph - N/A   Clear
5:56 AM -9.4 °F -20.9 °F -14.8 °F 77% 30.35 in - NE 4.6 mph - N/A   Scattered Clouds
6:35 AM -7.6 °F - -11.2 °F 84% 30.35 in - Calm Calm - N/A   Mostly Cloudy
6:51 AM -8.0 °F - -13.0 °F 79% 30.65 in - Calm Calm - N/A   Overcast
7:51 AM -7.1 °F -15.9 °F -9.9 °F 87% 30.64 in - SW 3.5 mph - N/A   Overcast
8:51 AM -4.0 °F - -9.0 °F 79% 30.67 in - Calm Calm - N/A   Overcast
8:57 AM -5.8 °F - -9.4 °F 84% 30.37 in - Calm Calm - N/A   Overcast
9:26 AM -2.2 °F - -7.6 °F 78% 30.36 in - Calm Calm - N/A   Scattered Clouds
9:51 AM -2.0 °F - -5.1 °F 87% 30.66 in - Calm Calm - N/A   Clear
10:05 AM -2.2 °F - -5.8 °F 85% 30.37 in 1.5 mi Calm Calm - N/A   Clear
10:17 AM -2.2 °F - -5.8 °F 85% 30.37 in 1.5 mi Calm Calm - N/A   Partly Cloudy
10:51 AM 1.0 °F - -2.0 °F 87% 30.66 in 1.5 mi Calm Calm - N/A   Clear
11:51 AM 3.0 °F -4.4 °F -0.9 °F 84% 30.64 in 1.5 mi NNW 3.5 mph - N/A   Clear
12:51 PM 5.0 °F -4.1 °F 1.0 °F 84% 30.61 in 1.5 mi WNW 4.6 mph - N/A   Clear
2:51 PM 8.1 °F -4.3 °F 3.0 °F 80% 30.55 in 1.5 mi West 8.1 mph - N/A   Haze
3:51 PM 10.0 °F - 3.9 °F 76% 30.54 in 1.8 mi Calm Calm - N/A   Haze
4:51 PM 8.1 °F -0.5 °F 3.0 °F 80% 30.56 in 1.5 mi NNE 4.6 mph - N/A   Haze
5:44 PM 8.6 °F - 3.2 °F 79% 30.29 in 2.5 mi Calm Calm - N/A   Haze
5:51 PM 8.1 °F - 3.0 °F 80% 30.56 in 2.5 mi Calm Calm - N/A   Haze
6:51 PM 6.1 °F -0.9 °F 1.9 °F 83% 30.56 in 2.5 mi West 3.5 mph - N/A   Clear
7:51 PM 3.9 °F - -0.0 °F 84% 30.54 in 2.5 mi Calm Calm - N/A   Clear
8:51 PM 3.0 °F -4.4 °F -0.9 °F 84% 30.55 in 2.0 mi ENE 3.5 mph - N/A   Clear
9:51 PM 5.0 °F -4.1 °F 1.0 °F 84% 30.52 in 2.0 mi SW 4.6 mph - N/A   Clear
10:51 PM 1.9 °F - -2.0 °F 83% 30.52 in 2.0 mi Calm Calm - N/A   Scattered Clouds
11:51 PM 3.0 °F - -0.0 °F 87% 30.52 in 2.0 mi Calm Calm - N/A   Partly Cloudy